Hourly Data Report for December 15, 2012

BAGOTVILLE A
QUEBEC

48°20'00.000" N
71°00'00.000" W
159.10 m
7060400
71727
YBG

Download Data

Hourly Data (December 2012)
Hourly Data Report for December 15, 2012
TIME
LST
Temp Definition
°C
Dew Point Definition
°C
Rel Hum Definition
%
Precip. Amount Definition
mm

Wind Dir Definition
10's deg

Wind Spd Definition
km/h
Visibility Definition
km
Stn Press Definition
kPa
Hmdx Definition


Wind Chill Definition


Weather Definition


00:00 -14.2 -16.9 80   29 22 24.1 100.60   -24 Mainly Clear
01:00 -15.3 -17.6 83   28 20 24.1 100.70   -25 Mainly Clear
02:00 -16.5 -18.4 85   27 17 24.1 100.82   -25 Clear
03:00 -17.0 -19.0 84   27 15 24.1 100.94   -25 Clear
04:00 -17.3 -18.7 89   27 15 24.1 100.97   -26 Clear
05:00 -18.4 -19.8 89   27 11 24.1 101.02   -26 Clear
06:00 -19.4 -20.9 88   27 7 24.1 101.08   -25 Clear
07:00 -18.5 -20.0 88   27 13 24.1 101.10   -27 Mainly Clear
08:00 -18.5 -20.0 88   27 9 40.2 101.17   -25 Clear
09:00 -18.6 -20.1 88   27 9 40.2 101.23   -25 Mainly Clear
10:00 -16.0 -19.0 78   29 13 40.2 101.29   -24 Mainly Clear
11:00 -14.8 -18.8 72   29 13 40.2 101.23   -22 Mainly Clear
12:00 -13.6 -18.4 67   30 13 40.2 101.20   -21 Mainly Clear
13:00 -12.9 -16.4 75   31 13 40.2 101.17   -20 Mainly Clear
14:00 -12.6 -17.1 69   30 13 40.2 101.20   -19 Mainly Clear
15:00 -13.0 -17.1 71   29 15 40.2 101.19   -20 Clear
16:00 -14.6 -17.9 76   28 11 40.2 101.22   -21 Clear
17:00 -16.9 -18.8 85   27 9 32.2 101.20   -23 Clear
18:00 -16.1 -18.5 82   28 9 24.1 101.21   -22 Clear
19:00 -18.0 -20.1 84   25 7 24.1 101.19   -23 Clear
20:00 -17.6 -19.6 84   27 9 24.1 101.17   -24 Clear
21:00 -19.8 -22.0 83   22 7 24.1 101.13   -25 Clear
22:00 -19.5 -21.0 88     0 24.1 101.14     Clear
23:00 -17.8 -19.2 89   21 6 24.1 101.16   -22 Mainly Clear

Notes on Data Quality.

Legend

  • E = Estimated
  • M = Missing
  • NA = Not Available*
  • [empty] = Indicates an unobserved value
Date modified: